Location: Jastrzębie Zdrój
(49.9551°N, 18.6138°E)
Time: 23:56:55
(UTC+01:00)

ISS - Visible Passes

Search period start: 23 January 2019 00:00
Search period end: 02 February 2019 00:00
Orbit: 404 x 410 km, 51.6° (Epoch: 24 January)

Date Brightness Start Highest point End Pass type
(mag) Time Alt. Az. Time Alt. Az. Time Alt. Az.
23 Jan -1.8 18:39:32 10° SSW 18:41:05 21° S 18:41:05 21° S visible
24 Jan -2.0 17:48:51 10° S 17:51:16 19° SE 17:52:04 17° ESE visible
24 Jan -0.8 19:24:07 10° WSW 19:24:47 15° WSW 19:24:47 15° WSW visible
25 Jan -3.2 18:32:52 10° SW 18:35:41 48° S 18:35:41 48° S visible
26 Jan -2.8 17:41:45 10° SW 17:44:47 35° SSE 17:46:30 20° E visible
26 Jan -1.3 19:17:53 10° W 19:19:14 22° W 19:19:14 22° W visible
27 Jan -4.0 18:26:28 10° WSW 18:29:47 86° SSE 18:30:00 77° E visible
28 Jan -3.6 17:35:08 10° WSW 17:38:23 62° SSE 17:40:43 18° E visible
28 Jan -1.7 19:11:41 10° W 19:13:26 28° WNW 19:13:26 28° WNW visible
29 Jan -3.8 18:20:12 10° W 18:23:31 70° N 18:24:07 53° NE visible
30 Jan -3.8 17:28:44 10° WSW 17:32:03 85° NNW 17:34:47 14° ENE visible
30 Jan -2.2 19:05:26 10° WNW 19:07:30 34° WNW 19:07:30 34° WNW visible
31 Jan -3.7 18:13:57 10° W 18:17:14 62° N 18:18:09 41° ENE visible
31 Jan -0.3 19:50:34 10° WNW 19:50:52 12° WNW 19:50:52 12° WNW visible
01 Feb -3.7 17:22:25 10° W 17:25:43 66° N 17:28:49 11° ENE visible
01 Feb -2.8 18:59:06 10° WNW 19:01:32 45° WNW 19:01:32 45° WNW visible
